Cooktown Observation History
Time Wind Speed Temp Pressure Rel. Hum Rain
04/07:30am SE 10-16 kts 21.7°c 1017.8 hPa 69% 0.0mm
04/07:00am SE 9-16 kts 21.1°c 1017.4 hPa 70% 0.0mm
04/06:30am SE 8-16 kts 21.2°c 1016.9 hPa 70% 0.0mm
04/06:00am SSE 7-13 kts 21.0°c 1016.6 hPa 71% 0.0mm
04/05:30am SE 5-9 kts 20.5°c 1016.4 hPa 74% 0.0mm
04/05:00am S 3-7 kts 20.0°c 1016.3 hPa 73% 0.0mm
04/04:30am SE 6-11 kts 21.2°c 1016.3 hPa 71% 0.0mm
04/04:00am SSE 6-11 kts 21.1°c 1016.3 hPa 71% 0.0mm
04/03:30am SE 6-9 kts 21.0°c 1016.5 hPa 70% 0.0mm
04/03:00am SE 8-15 kts 21.1°c 1016.5 hPa 67% 0.0mm
04/02:30am SE 9-16 kts 21.2°c 1016.6 hPa 67% 0.0mm
04/02:00am SE 8-13 kts 21.2°c 1016.9 hPa 69% 0.0mm
04/01:30am SE 9-15 kts 21.4°c 1017.2 hPa 70% 0.0mm
04/01:00am SE 7-11 kts 21.7°c 1017.5 hPa 71% 0.0mm
04/12:30am SE 7-14 kts 22.0°c 1017.6 hPa 71% 0.0mm
04/12:00am SSE 9-15 kts 22.1°c 1017.8 hPa 71% 0.0mm
Time Wind Speed Temp Pressure Rel. Hum Rain
03/11:30pm SE 10-15 kts 22.6°c 1018.1 hPa 66% 0.0mm
03/11:00pm SE 10-16 kts 22.7°c 1018.5 hPa 67% 0.0mm
03/10:30pm SE 11-23 kts 22.8°c 1018.7 hPa 68% 0.0mm
03/10:00pm SE 10-15 kts 22.8°c 1018.7 hPa 68% 0.0mm
03/09:30pm SE 11-19 kts 22.8°c 1018.7 hPa 70% 0.0mm
03/09:00pm SE 11-19 kts 23.2°c 1018.6 hPa 71% 0.0mm
03/08:30pm SE 9-16 kts 23.3°c 1018.5 hPa 70% 0.0mm
03/08:00pm SE 11-15 kts 23.5°c 1018.1 hPa 66% 0.0mm
03/07:30pm SE 8-14 kts 23.0°c 1017.8 hPa 76% 0.0mm
03/07:00pm SE 10-16 kts 23.2°c 1017.4 hPa 75% 0.0mm
03/06:30pm SE 11-18 kts 23.5°c 1016.9 hPa 74% 0.0mm
03/06:00pm SE 11-21 kts 23.9°c 1016.8 hPa 66% 0.0mm
03/05:30pm SE 10-19 kts 24.1°c 1016.6 hPa 64% 0.0mm
03/05:00pm SE 10-17 kts 24.6°c 1016.2 hPa 65% 0.0mm
03/04:30pm SE 12-23 kts 24.7°c 1016.1 hPa 65% 0.0mm
03/04:00pm SE 13-21 kts 25.0°c 1015.9 hPa 64% 0.0mm
03/03:30pm SE 14-21 kts 25.1°c 1015.8 hPa 63% 0.0mm
03/03:11pm SE 15-25 kts 26.0°c 1015.8 hPa 61% 0.0mm
03/03:00pm ESE 17-24 kts 26.4°c 1015.8 hPa 61% 0.0mm
03/02:30pm SE 16-26 kts 26.5°c 1015.9 hPa 58% 0.0mm
03/02:07pm ESE 16-26 kts 26.4°c 1016.1 hPa 63% 0.0mm
03/02:00pm ESE 16-25 kts 27.0°c 1016.1 hPa 62% 0.0mm
03/01:30pm SE 16-26 kts 26.2°c 1016.4 hPa 61% 0.0mm
03/01:15pm SE 15-25 kts 26.6°c 1016.5 hPa 62% 0.0mm
03/01:00pm SE 14-22 kts 25.7°c 1016.6 hPa 63% 0.0mm
03/12:30pm SE 15-25 kts 26.1°c 1017.0 hPa 65% 0.0mm
03/12:25pm SE 15-25 kts 25.8°c 1017.2 hPa 64% 0.0mm
03/12:00pm ESE 15-22 kts 25.9°c 1017.4 hPa 65% 0.0mm
03/11:46am SE 15-25 kts 26.2°c 1017.5 hPa 61% 0.0mm
03/11:30am ESE 14-24 kts 26.3°c 1017.6 hPa 70% 0.0mm
03/11:00am SE 15-24 kts 25.4°c 1017.9 hPa 69% 0.0mm
03/10:30am SE 13-18 kts 25.8°c 1018.1 hPa 71% 0.0mm
03/10:00am SE 11-18 kts 25.1°c 1018.3 hPa 76% 0.0mm
03/09:30am SE 11-15 kts 24.8°c 1018.2 hPa 78% 0.0mm
03/09:00am SE 10-15 kts 24.2°c 1018.2 hPa 78% 0.0mm
03/08:30am SE 9-15 kts 24.3°c 1018.0 hPa 79% 0.0mm
03/08:00am SE 8-12 kts 23.5°c 1017.6 hPa 79% 0.0mm
03/07:30am SE 7-10 kts 22.9°c 1017.3 hPa 82% 0.0mm
03/07:00am SE 6-8 kts 22.1°c 1017.1 hPa 84% 0.0mm
03/06:30am SE 4-7 kts 19.1°c 1016.8 hPa 83% 0.0mm
03/06:00am SE 4-7 kts 21.5°c 1016.5 hPa 85% 0.0mm
03/05:30am SE 5-7 kts 21.5°c 1016.2 hPa 84% 0.0mm
03/05:00am SSE 5-7 kts 21.8°c 1016.2 hPa 83% 0.0mm
03/04:30am SE 5-7 kts 21.8°c 1016.0 hPa 84% 0.0mm
03/04:00am SE 6-8 kts 22.0°c 1015.9 hPa 84% 0.0mm
03/03:30am SE 5-8 kts 22.0°c 1016.0 hPa 85% 0.0mm
03/03:00am SE 6-10 kts 22.2°c 1016.1 hPa 83% 0.0mm
03/02:30am SE 7-11 kts 22.5°c 1016.0 hPa 83% 0.0mm
03/02:00am SE 8-12 kts 22.7°c 1016.3 hPa 82% 0.0mm
03/01:30am SE 7-11 kts 23.0°c 1016.8 hPa 82% 0.0mm
03/01:00am SE 6-9 kts 22.7°c 1017.1 hPa 81% 0.0mm
03/12:30am SSE 6-10 kts 22.7°c 1017.3 hPa 80% 0.0mm
03/12:00am SE 6-9 kts 22.9°c 1017.6 hPa 78% 0.0mm
Time Wind Speed Temp Pressure Rel. Hum Rain
02/11:30pm SE 8-11 kts 23.3°c 1018.0 hPa 76% 0.0mm
02/11:00pm SE 9-14 kts 23.3°c 1018.2 hPa 75% 0.0mm
02/10:30pm SE 8-14 kts 23.3°c 1018.4 hPa 76% 0.0mm
02/10:00pm SE 7-12 kts 23.3°c 1018.5 hPa 78% 0.0mm
02/09:30pm SE 9-16 kts 23.5°c 1018.3 hPa 76% 0.0mm
02/09:00pm SE 7-14 kts 23.5°c 1018.2 hPa 78% 0.0mm
02/08:30pm SE 7-11 kts 23.2°c 1018.1 hPa 80% 0.0mm
02/08:00pm SE 7-13 kts 23.2°c 1017.6 hPa 78% 0.0mm
02/07:30pm SE 8-13 kts 23.5°c 1017.2 hPa 78% 0.0mm
02/07:00pm SE 7-12 kts 23.3°c 1016.9 hPa 79% 0.0mm
02/06:30pm ESE 7-11 kts 23.1°c 1016.5 hPa 77% 0.0mm
02/06:00pm SE 9-15 kts 23.6°c 1016.2 hPa 76% 0.0mm
02/05:30pm SE 8-14 kts 23.9°c 1015.9 hPa 73% 0.0mm
02/05:00pm SE 8-11 kts 24.6°c 1015.6 hPa 71% 0.0mm
02/04:30pm SE 11-15 kts 25.2°c 1015.6 hPa 68% 0.0mm
02/04:00pm SE 10-15 kts 25.6°c 1015.4 hPa 67% 0.0mm
02/03:30pm SE 11-17 kts 26.0°c 1015.4 hPa 65% 0.0mm
02/03:00pm ESE 12-18 kts 26.4°c 1015.4 hPa 60% 0.0mm
02/02:30pm ESE 11-16 kts 27.0°c 1015.3 hPa 59% 0.0mm
02/02:00pm SE 10-15 kts 27.2°c 1015.6 hPa 58% 0.0mm
02/01:30pm SE 11-17 kts 26.7°c 1015.9 hPa 61% 0.0mm
02/01:00pm SE 11-17 kts 27.3°c 1016.4 hPa 64% 0.0mm
02/12:30pm SE 11-17 kts 26.5°c 1016.9 hPa 62% 0.0mm
02/12:00pm ESE 11-18 kts 26.9°c 1017.1 hPa 60% 0.0mm
02/11:30am SE 11-18 kts 26.6°c 1017.5 hPa 66% 0.0mm
02/11:00am ESE 12-19 kts 26.0°c 1017.7 hPa 65% 0.0mm
02/10:30am SE 10-15 kts 26.4°c 1017.8 hPa 65% 0.0mm
02/10:00am SE 10-15 kts 26.0°c 1018.0 hPa 68% 0.0mm
02/09:30am SE 9-13 kts 25.6°c 1017.8 hPa 70% 0.0mm
02/09:00am SE 9-14 kts 24.8°c 1017.8 hPa 74% 0.0mm
02/08:30am SE 7-10 kts 24.2°c 1017.6 hPa 79% 0.0mm
02/08:00am SE 7-11 kts 23.6°c 1017.4 hPa 83% 0.0mm
02/07:30am SE 6-8 kts 22.6°c 1017.2 hPa 88% 0.0mm
02/07:00am SSE 6-7 kts 22.0°c 1016.9 hPa 90% 0.0mm
02/06:30am SSE 4-7 kts 21.6°c 1016.5 hPa 91% 0.0mm
02/06:00am SE 5-7 kts 22.2°c 1016.2 hPa 90% 0.0mm
02/05:30am SSE 5-6 kts 21.8°c 1015.9 hPa 90% 0.0mm
02/05:00am SSE 5-8 kts 22.2°c 1015.9 hPa 89% 0.0mm
02/04:30am SE 5-6 kts 22.5°c 1015.9 hPa 88% 0.0mm
02/04:00am SE 4-6 kts 22.6°c 1015.7 hPa 87% 0.0mm
02/03:30am SE 4-5 kts 22.7°c 1015.6 hPa 88% 0.0mm
02/03:00am SE 4-5 kts 22.9°c 1015.7 hPa 86% 0.0mm
02/02:30am SSE 4-6 kts 23.4°c 1015.7 hPa 83% 0.0mm
02/02:00am SE 6-8 kts 23.5°c 1015.9 hPa 82% 0.0mm
02/01:30am SE 5-7 kts 23.2°c 1016.2 hPa 85% 0.0mm
02/01:00am SE 6-9 kts 23.2°c 1016.5 hPa 84% 0.0mm
02/12:30am SSE 4-7 kts 23.4°c 1016.8 hPa 86% 0.0mm
02/12:00am SE 5-7 kts 23.4°c 1017.0 hPa 87% 0.0mm